Tracking 29892 objects as of 21-Nov-2024
HD Live streaming from Space Station
objects crossing your sky now

STARLINK-4491

Track STARLINK-4491 now!
10-day predictions
STARLINK-4491 is classified as:


NORAD ID: 53408
Int'l Code: 2022-097W
Perigee: 546.1 km
Apogee: 547.6 km
Inclination: 53.2 °
Period: 95.4 minutes
Semi major axis: 6917 km
RCS: Unknown
Launch date: August 10, 2022
Source: United States (US)
Launch site: AIR FORCE EASTERN TEST RANGE (AFETR)
Your satellite tracking list
Your tracking list is empty




NASA's NSSDC Master Catalog

Two Line Element Set (TLE):
1 53408U 22097W   24325.30192374 -.00000569  00000-0 -17654-4 0  9994
2 53408  53.2167  83.7300 0001097  84.8849 275.2268 15.08843385127035
Source of the keplerian elements: AFSPC